Saginaw, Michigan, United States (48601)
Lat: 43.42N, Lon: 83.95W
Wx Zone: MIZ053
Local Info
Past Weather Observations for Today

NOTE: This archive is for the closest National Weather Service station to Saginaw. Information may differ from the station used for current weather conditions.

Click here for Long-term Archive

Time Weather Temperature Dewpoint Humidity Pressure Winds Precip Visibility
06:54
Clear
16°F / -9°C 10°F / -12°C 79% 30.27 in
(1025 mb)
NW 6.9 mph
(NW 11 kph)
- 10SM
06:35
Clear
14°F / -10°C 9°F / -13°C 79% 30.27 in
(1025 mb)
NW 6.9 mph
(NW 11 kph)
- 10SM
06:15
Clear
14°F / -10°C 9°F / -13°C 79% 30.24 in
(1024 mb)
NW 8.1 mph
(NW 13 kph)
- 10SM
05:55
Clear
16°F / -9°C 9°F / -13°C 73% 30.24 in
(1024 mb)
NW 6.9 mph
(NW 11 kph)
- 10SM
05:35
Clear
16°F / -9°C 9°F / -13°C 73% 30.24 in
(1024 mb)
NW 8.1 mph
(NW 13 kph)
- 10SM
05:15
Clear
16°F / -9°C 9°F / -13°C 73% 30.21 in
(1023 mb)
NW 9.2 mph
(NW 15 kph)
- 10SM
04:55
Clear
16°F / -9°C 9°F / -13°C 73% 30.21 in
(1023 mb)
NW 8.1 mph
(NW 13 kph)
- 10SM
04:35
Clear
16°F / -9°C 9°F / -13°C 73% 30.21 in
(1023 mb)
NW 9.2 mph
(NW 15 kph)
- 10SM
04:15
Clear
16°F / -9°C 9°F / -13°C 73% 30.18 in
(1022 mb)
NW 8.1 mph
(NW 13 kph)
- 10SM
03:55
Clear
18°F / -8°C 9°F / -13°C 68% 30.18 in
(1022 mb)
NW 9.2 mph
(NW 15 kph)
- 10SM
03:35
Clear
18°F / -8°C 9°F / -13°C 68% 30.18 in
(1022 mb)
NW 8.1 mph
(NW 13 kph)
- 10SM
03:14
Clear
18°F / -8°C 7°F / -14°C 62% 30.18 in
(1022 mb)
NNW 9.2 mph
(NNW 15 kph)
- 10SM
02:55
Clear
18°F / -8°C 5°F / -15°C 58% 30.18 in
(1022 mb)
NNW 9.2 mph
(NNW 15 kph)
- 10SM
02:35
Clear
18°F / -8°C 5°F / -15°C 58% 30.18 in
(1022 mb)
NW 9.2 mph
(NW 15 kph)
- 10SM
02:14
Clear
18°F / -8°C 7°F / -14°C 62% 30.18 in
(1022 mb)
NW 9.2 mph
(NW 15 kph)
- 10SM
01:55
Clear
18°F / -8°C 7°F / -14°C 62% 30.18 in
(1022 mb)
NW 6.9 mph
(NW 11 kph)
- 10SM
01:35
Clear
18°F / -8°C 7°F / -14°C 62% 30.18 in
(1022 mb)
NW 6.9 mph
(NW 11 kph)
- 10SM
01:15
Clear
18°F / -8°C 7°F / -14°C 62% 30.18 in
(1022 mb)
NNW 8.1 mph
(NNW 13 kph)
- 10SM
00:55
Clear
18°F / -8°C 7°F / -14°C 62% 30.18 in
(1022 mb)
NNW 6.9 mph
(NNW 11 kph)
- 10SM
00:35
Clear
18°F / -8°C 9°F / -13°C 68% 30.18 in
(1022 mb)
NW 6.9 mph
(NW 11 kph)
- 10SM
00:15
Clear
18°F / -8°C 9°F / -13°C 68% 30.18 in
(1022 mb)
NNW 5.8 mph
(NNW 9 kph)
- 10SM
Time Weather Temperature Dewpoint Humidity Pressure Winds Precip Visibility


Weather for websites

WeatherForYou.com, LLC is not responsible for any damages or problems caused by this service. Current weather conditions are obtained from the closest station including government and personal stations which may have varying degrees of accuracy. Weather forecasts are derived from the NOAA NDFD. Like all things, this site belongs to Jesus Christ... He just trusts me to maintain it. If you have any questions or comments email webmaster@weatherforyou.com

Copyright © 2015, WeatherForYou.com LLC. All rights reserved.